Terminal Aerodrome Forecast
Issued by NWS

Home | Current Version | Previous Version | Text Only | Print | Product List | Glossary Off
Versions: 1 2 3 4 5 6 7 8 9 10 11 12 13 14 15 16 17 18 19 20 21 22 23 24 25 26 27 28 29 30 31

000
FTUS43 KBIS 201730
TAFMOT
TAF
KMOT 201730Z 2018/2118 34008KT P6SM SCT011 BKN016
     FM202000 35013KT P6SM BKN015
     FM202200 35013KT P6SM OVC020
     FM210000 01008KT P6SM FEW025
     FM210300 06004KT P6SM SKC
     FM210800 12004KT P6SM VCFG FEW150=

USA.gov is the U.S. government's official web portal to all federal, state and local government web resources and services.